Location: Friaudour
(46.0460°N, 1.2873°E)
Time: 04:20:19
(UTC+00:00)

Cosmos 2016 Rocket - Pass Details

Date: 14 July 2020
Orbit: 948 x 999 km, 83.0° (Epoch: 06 August)

Event Time Altitude Azimuth Distance (km) Brightness Sun altitude
Exits shadow 01:53:41 27° 194° (SSW) 1,737 4.7 -17.7°
Maximum altitude 01:57:12 80° 279° (W) 983 3.9 -17.4°
Drops below altitude 10° 02:03:28 10° 7° (N) 2,729 7.4 -16.8°
Sets 02:06:00 0° 8° (N) 3,688 8.3 -16.6°
